Date String (YYYY-MM-DD hh:mm:ss) UTC,Instrument flags,Ambient pressure (hPa),Sample flow (lpm),Bypass flow (lpm),Sample temperature (°C),Ambient temperature (°C),ASC tube jacket temperature (°C),LED temperature (°C),Box temperature (°C),Sample RH (%),Span deviation,Mass concentration (μg/m³),Mass concentration (μg/m³),Mass concentration (μg/m³)
DateTimeUTC,F1_M11,P_M11,Q1_M11,Q2_M11,T1_M11,T2_M11,T3_M11,T4_M11,T5_M11,U1_M11,ZSPAN_M11,X2_M11,X0_M11,X1_M11
2023-02-08 06:00:00,,0827.9,4.97,0.00,22.2,20.7,00.0,31.2,23.9,09.0,0000.0,0003.16,0009.92,0002.17
2023-02-08 06:01:00,,0827.9,5.04,0.00,22.3,21.2,00.0,31.2,24.1,08.9,0000.0,0003.14,0009.80,0002.18
2023-02-08 06:02:00,,0827.9,4.96,0.00,22.4,22.2,00.0,31.1,24.3,08.9,0000.0,0003.13,0009.51,0002.21
2023-02-08 06:03:00,,0827.9,5.01,0.00,22.5,22.9,00.0,31.2,24.5,08.8,0000.0,0003.15,0009.35,0002.23
2023-02-08 06:04:00,,0827.9,5.03,0.00,22.6,22.6,00.0,31.2,24.5,08.7,0000.0,0003.17,0009.61,0002.24
2023-02-08 06:05:00,,0827.9,5.06,0.00,22.6,22.2,00.0,31.3,24.4,08.7,0000.0,0003.18,0009.72,0002.24
2023-02-08 06:06:00,,0827.9,4.99,0.00,22.6,21.9,00.0,31.3,24.4,08.6,0000.0,0003.18,0009.92,0002.23
2023-02-08 06:07:00,,0827.9,5.05,0.00,22.6,21.7,00.0,31.3,24.4,08.7,0000.0,0003.19,0010.07,0002.24
2023-02-08 06:08:00,,0827.9,5.08,0.00,22.6,21.5,00.0,31.3,24.3,08.8,0000.0,0003.17,0009.76,0002.22
2023-02-08 06:09:00,,0827.9,5.04,0.00,22.6,21.4,00.0,31.3,24.3,08.8,0000.0,0003.16,0008.41,0002.19
2023-02-08 06:10:00,,0827.9,4.95,0.00,22.5,21.3,00.0,31.3,24.3,08.8,0000.0,0003.13,0007.96,0002.18
2023-02-08 06:11:00,,0827.9,4.98,0.00,22.5,21.2,00.0,31.3,24.3,08.8,0000.0,0003.15,0007.64,0002.18
2023-02-08 06:12:00,,0827.9,4.95,0.00,22.5,21.1,00.0,31.3,24.3,08.8,0000.0,0003.14,0007.62,0002.17
2023-02-08 06:13:00,,0827.9,5.02,0.00,22.5,21.1,00.0,31.4,24.3,08.9,0000.0,0003.14,0007.65,0002.15
2023-02-08 06:14:00,,0827.9,5.06,0.00,22.5,21.1,00.0,31.4,24.3,08.9,0000.0,0003.11,0007.43,0002.12
2023-02-08 06:15:00,,0827.9,5.04,0.00,22.5,21.0,00.0,31.4,24.3,08.8,0000.0,0003.04,0006.98,0002.08
2023-02-08 06:16:00,,0827.9,5.01,0.00,22.5,21.1,00.0,31.4,24.3,08.7,0000.0,0002.98,0006.78,0002.05
2023-02-08 06:17:00,,0827.9,4.98,0.00,22.5,21.1,00.0,31.4,24.2,08.6,0000.0,0002.86,0005.81,0002.02
2023-02-08 06:18:00,,0827.8,5.00,0.00,22.5,21.1,00.0,31.3,24.2,08.6,0000.0,0002.84,0005.54,0001.99
2023-02-08 06:19:00,,0827.8,4.92,0.00,22.5,21.0,00.0,31.3,24.2,08.6,0000.0,0002.81,0005.52,0001.98
2023-02-08 06:20:00,,0827.8,4.97,0.00,22.4,21.0,00.0,31.3,24.2,08.5,0000.0,0002.81,0006.40,0001.96
2023-02-08 06:21:00,,0827.7,4.92,0.00,22.4,20.9,00.0,31.3,24.1,08.5,0000.0,0002.92,0007.25,0001.95
2023-02-08 06:22:00,,0827.7,5.00,0.00,22.4,20.9,00.0,31.3,24.1,08.6,0000.0,0002.90,0007.42,0001.93
2023-02-08 06:23:00,,0827.7,4.89,0.00,22.4,20.9,00.0,31.3,24.1,08.7,0000.0,0002.90,0007.32,0001.91
2023-02-08 06:24:00,,0827.8,4.98,0.00,22.4,20.9,00.0,31.3,24.1,08.6,0000.0,0002.97,0007.24,0001.90
2023-02-08 06:25:00,,0827.7,4.94,0.00,22.4,20.8,00.0,31.3,24.1,08.6,0000.0,0003.00,0007.33,0001.91
2023-02-08 06:26:00,,0827.7,5.03,0.00,22.4,20.8,00.0,31.3,24.0,08.6,0000.0,0003.01,0007.37,0001.93
2023-02-08 06:27:00,,0827.8,4.93,0.00,22.4,21.2,00.0,31.2,24.2,08.6,0000.0,0002.96,0007.21,0001.93
2023-02-08 06:28:00,,0827.8,5.00,0.00,22.5,22.1,00.0,31.2,24.4,08.5,0000.0,0003.00,0008.07,0001.95
2023-02-08 06:29:00,,0827.8,5.00,0.00,22.6,22.8,00.0,31.2,24.6,08.3,0000.0,0003.02,0008.64,0001.95
2023-02-08 06:30:00,,0827.7,5.01,0.00,22.6,22.6,00.0,31.3,24.6,08.3,0000.0,0003.03,0008.73,0001.95
2023-02-08 06:31:00,,0827.7,5.00,0.00,22.6,22.3,00.0,31.3,24.6,08.4,0000.0,0003.01,0008.81,0001.96
2023-02-08 06:32:00,,0827.7,4.98,0.00,22.6,22.0,00.0,31.4,24.5,08.5,0000.0,0002.84,0008.30,0001.94
2023-02-08 06:33:00,,0827.7,5.01,0.00,22.6,21.7,00.0,31.4,24.5,08.5,0000.0,0002.75,0007.89,0001.92
2023-02-08 06:34:00,,0827.7,5.00,0.00,22.6,21.6,00.0,31.4,24.4,08.4,0000.0,0002.71,0008.18,0001.90
2023-02-08 06:35:00,,0827.7,5.01,0.00,22.6,21.4,00.0,31.4,24.4,08.4,0000.0,0002.60,0008.54,0001.89
2023-02-08 06:36:00,,0827.7,5.00,0.00,22.6,21.3,00.0,31.4,24.4,08.4,0000.0,0002.50,0008.31,0001.86
2023-02-08 06:37:00,,0827.8,5.00,0.00,22.6,21.2,00.0,31.4,24.4,08.4,0000.0,0002.46,0008.24,0001.84
2023-02-08 06:38:00,,0827.8,4.99,0.00,22.6,21.2,00.0,31.4,24.4,08.4,0000.0,0002.44,0008.30,0001.82
2023-02-08 06:39:00,,0827.7,5.01,0.00,22.6,21.1,00.0,31.4,24.4,08.4,0000.0,0002.45,0008.13,0001.80
2023-02-08 06:40:00,,0827.8,4.99,0.00,22.6,21.1,00.0,31.4,24.3,08.3,0000.0,0002.43,0007.38,0001.79
2023-02-08 06:41:00,,0827.8,5.04,0.00,22.6,21.1,00.0,31.4,24.3,08.3,0000.0,0002.39,0007.44,0001.76
2023-02-08 06:42:00,,0827.8,5.07,0.00,22.5,21.0,00.0,31.4,24.3,08.3,0000.0,0002.34,0006.67,0001.73
2023-02-08 06:43:00,,0827.9,4.98,0.00,22.5,21.0,00.0,31.4,24.3,08.3,0000.0,0002.30,0006.67,0001.72
2023-02-08 06:44:00,,0827.9,5.00,0.00,22.5,20.9,00.0,31.4,24.3,08.3,0000.0,0002.29,0007.27,0001.72
2023-02-08 06:45:00,,0827.9,5.08,0.00,22.5,20.9,00.0,31.4,24.3,08.3,0000.0,0002.30,0007.19,0001.72
2023-02-08 06:46:00,,0827.9,5.00,0.00,22.5,21.0,00.0,31.4,24.2,08.2,0000.0,0002.31,0006.63,0001.72
2023-02-08 06:47:00,,0827.9,5.05,0.00,22.5,20.9,00.0,31.4,24.1,08.2,0000.0,0002.32,0007.35,0001.71
2023-02-08 06:48:00,,0827.9,4.99,0.00,22.4,20.7,00.0,31.4,24.1,08.2,0000.0,0002.35,0007.68,0001.70
2023-02-08 06:49:00,,0827.9,5.06,0.00,22.4,20.6,00.0,31.3,24.0,08.0,0000.0,0002.40,0008.33,0001.69
2023-02-08 06:50:00,,0827.9,5.03,0.00,22.3,20.5,00.0,31.3,23.9,08.0,0000.0,0002.36,0008.48,0001.68
2023-02-08 06:51:00,,0827.9,4.96,0.00,22.3,20.4,00.0,31.3,23.9,08.0,0000.0,0002.36,0008.16,0001.67
2023-02-08 06:52:00,,0827.8,5.00,0.00,22.2,20.3,00.0,31.3,23.8,08.0,0000.0,0002.39,0008.19,0001.67
2023-02-08 06:53:00,,0827.9,4.97,0.00,22.2,20.6,00.0,31.2,23.9,08.1,0000.0,0002.38,0008.04,0001.67
2023-02-08 06:54:00,,0827.8,4.98,0.00,22.3,21.6,00.0,31.2,24.1,08.1,0000.0,0002.39,0008.01,0001.66
2023-02-08 06:55:00,,0827.9,5.00,0.00,22.4,22.5,00.0,31.2,24.4,08.2,0000.0,0002.43,0007.92,0001.66
2023-02-08 06:56:00,,0827.9,4.99,0.00,22.5,22.4,00.0,31.2,24.4,08.3,0000.0,0002.46,0008.04,0001.66
2023-02-08 06:57:00,,0827.9,5.02,0.00,22.5,21.9,00.0,31.3,24.3,08.6,0000.0,0002.66,0008.06,0001.83
2023-02-08 06:58:00,,0827.9,4.94,0.00,22.4,21.5,00.0,31.3,24.2,08.5,0000.0,0002.99,0007.88,0002.15
2023-02-08 06:59:00,,0827.8,4.96,0.00,22.4,21.2,00.0,31.3,24.1,08.9,0000.0,0003.14,0007.80,0002.33
